User: anonymous   Login
Location: Huesca
(42.1318°N, 0.4078°W)
Time: 20:43:33
(UTC+02:00)
Language:

UNISAT 6 - Orbit

View from above orbital plane
View from above orbital plane
View from above satellite
View from above satellite

Ground track
Ground track

The orbit data is extracted from the following two-line orbital elements,

1 40012U 14033C   24113.01200966  .00011233  00000-0  14770-2 0  9994
2 40012  97.6976 277.7670 0054410 127.9706 232.6439 14.79310701529531
Epoch (UTC): 22 April 2024 00:17:17
Eccentricity: 0.0054410
inclination: 97.6976°
perigee height: 593 km
apogee height: 669 km
right ascension of ascending node: 277.7670°
argument of perigee: 127.9706°
revolutions per day: 14.79310701
mean anomaly at epoch: 232.6439°
orbit number at epoch: 52953

The dashed part of the orbit path shows where the satellite is in the earth's shadow,  

DLR